Location: Adaghas
(31.2259°N, 9.0496°W)
Time: 02:39:09
(UTC+00:00)

H-2A R/B - Pass Details

Date: 18 September 2020
Orbit: 734 x 836 km, 98.2° (Epoch: 23 October)

Event Time Altitude Azimuth Distance (km) Brightness Sun altitude
Rises 20:49:59 0° 200° (SSW) 3,147 5.2 -28.5°
Reaches altitude 10° 20:52:45 10° 216° (SW) 2,233 4.5 -29.1°
Maximum altitude 20:56:25 21° 265° (W) 1,627 4.2 -29.8°
Drops below altitude 10° 21:00:07 10° 313° (NW) 2,268 5.2 -30.5°
Sets 21:02:59 0° 330° (NNW) 3,211 6.0 -31.1°
